Back to catalog

STARLINK-34813

AliveCommunicationsVLEO
NORAD 66195·PAYLOAD·🇺🇸 United States

Launched Oct 26, 2025 from Cape Canaveral Space Force Station

Loading…

Next Passes (next 24 hours)

TLE

FreshSource: CelesTrak SupGP

Epoch: Sep 14, 2026, 15:51 UTC

1 66195C 25243U   26257.66090278 -.00031841  00000+0 -94082-3 0  2574
2 66195  53.1581  84.7099 0001232  85.7738 340.0661 15.34404503    15

Track STARLINK-34813 in real time with AllMySat

Download on the App Store